Defiance, OH

10:55 AM EST on December 08, 2019 (GMT -0500)
Defiance Memorial

Weather History for KDFI - November, 2019

Change the Weather History Date:

Sunday, November 17, 2019

  Actual Average Record
Temperature  
Mean Temperature 32 °F -  
Max Temperature 42 °F 47 °F 71 °F (2016)
Min Temperature 23 °F 28 °F 9 °F (1959)
Degree Days  
Heating Degree Days 32    
Moisture  
Dew Point 25 °F    
Average Humidity 73    
Maximum Humidity 85    
Minimum Humidity 53    
Precipitation  
Precipitation 0.00 in - - ()
Sea Level Pressure  
Sea Level Pressure 30.08 in    
Wind  
Wind Speed 2 mph ()    
Max Wind Speed 6 mph    
Max Gust Speed -    
Visibility 9.7 miles    
Events      
Averages and records for this station are not official NWS values.
T = Trace of Precipitation, MM = Missing Value Source: Averaged Metar Reports

Daily Weather History Graph

Daily Weather History Graph

Search for Another Location

Airport or City:

Astronomy

Nov. 17, 2019 Rise Set
Actual Time 7:28 AM EST 5:16 PM EST
Civil Twilight 6:58 AM EST 5:46 PM EST
Nautical Twilight 6:24 AM EST 6:20 PM EST
Astronomical Twilight 5:52 AM EST 6:52 PM EST
Moon 9:51 PM EST (11/17) 12:14 PM EST (11/17)
Length of Visible Light 10h 48m
Length of Day
9h 48m
Waning Gibbous, 73% of the Moon is Illuminated
Nov 17
Waning Gibbous
Nov 19
Last Quarter
Nov 26
New
Dec 4
First Quarter
Dec 12
Full

Hourly Weather History & Observations

Time (EST) Temp. Windchill Dew Point Humidity Pressure Visibility Wind Dir Wind Speed Gust Speed Precip Events Conditions
12:53 AM 27.0 °F 21.6 °F 21.0 °F 78% 30.25 in 10.0 mi NNE 4.6 mph - N/A   Clear
1:53 AM 26.1 °F 20.5 °F 21.0 °F 81% 30.24 in 10.0 mi NE 4.6 mph - N/A   Clear
2:53 AM 25.0 °F - 19.9 °F 81% 30.22 in 10.0 mi Calm Calm - N/A   Clear
3:53 AM 24.1 °F 19.7 °F 19.9 °F 84% 30.22 in 10.0 mi ENE 3.5 mph - N/A   Clear
4:53 AM 24.1 °F - 19.9 °F 84% 30.21 in 10.0 mi Calm Calm - N/A   Clear
5:53 AM 24.1 °F - 19.9 °F 84% 30.20 in 10.0 mi Calm Calm - N/A   Clear
6:53 AM 23.0 °F - 19.0 °F 85% 30.18 in 8.0 mi Calm Calm - N/A   Clear
7:53 AM 24.1 °F - 19.9 °F 84% 30.18 in 6.0 mi Calm Calm - N/A   Clear
8:53 AM 27.0 °F 23.0 °F 21.9 °F 81% 30.16 in 8.0 mi East 3.5 mph - N/A   Clear
9:53 AM 30.9 °F 26.2 °F 24.1 °F 76% 30.14 in 10.0 mi East 4.6 mph - N/A   Clear
10:53 AM 36.0 °F - 25.0 °F 64% 30.11 in 10.0 mi Calm Calm - N/A   Clear
11:53 AM 39.0 °F 36.8 °F 25.0 °F 57% 30.08 in 10.0 mi South 3.5 mph - N/A   Clear
12:53 PM 42.1 °F 40.2 °F 27.0 °F 55% 30.04 in 10.0 mi SW 3.5 mph - N/A   Clear
1:53 PM 42.1 °F 38.4 °F 26.1 °F 53% 30.03 in 10.0 mi SSW 5.8 mph - N/A   Clear
2:53 PM 42.1 °F 40.2 °F 28.0 °F 58% 29.99 in 10.0 mi SSE 3.5 mph - N/A   Clear
3:53 PM 42.1 °F - 27.0 °F 55% 29.99 in 10.0 mi Calm Calm - N/A   Partly Cloudy
4:53 PM 41.0 °F - 30.0 °F 65% 29.99 in 10.0 mi Calm Calm - N/A   Partly Cloudy
5:53 PM 37.9 °F - 30.9 °F 76% 29.98 in 10.0 mi Calm Calm - N/A   Clear
6:53 PM 39.0 °F 35.7 °F 28.9 °F 67% 29.97 in 10.0 mi ESE 4.6 mph - N/A   Partly Cloudy
7:53 PM 37.9 °F - 30.0 °F 73% 29.95 in 10.0 mi Calm Calm - N/A   Mostly Cloudy
9:53 PM 37.9 °F - 30.9 °F 76% 29.92 in 10.0 mi Calm Calm - N/A   Overcast
10:53 PM 37.0 °F 34.5 °F 30.0 °F 76% 29.89 in 10.0 mi East 3.5 mph - N/A   Mostly Cloudy
11:53 PM 37.0 °F - 30.0 °F 76% 29.88 in 10.0 mi Calm Calm - N/A   Overcast